Regional Weather Roundup
Issued by NWS

Home | Current Version | Previous Version | Graphics & Text | Print | Product List | Glossary Off
Versions: 1 2 3 4 5 6 7 8 9 10 11 12 13 14 15 16 17 18 19 20 21 22 23 24 25 26 27 28 29 30 31 32 33 34 35 36 37 38 39 40 41 42 43 44 45 46 47 48 49 50

000
ASUS43 KMPX 301901
RWRMN
WEATHER ROUNDUP FOR MINNESOTA
NATIONAL WEATHER SERVICE TWIN CITIES/CHANHASSEN MN
200 PM CDT SAT MAY 30 2015


NOTE: "FAIR" INDICATES FEW OR NO CLOUDS BELOW 12,000 FEET WITH NO
SIGNIFICANT WEATHER AND/OR OBSTRUCTIONS TO VISIBILITY. N/A MEANS
CURRENT SKY AND/OR WEATHER CONDITIONS ARE NOT AVAILABLE.

MNZ060>063-068>070-302000-
   Twin Cities Metro

CITY           SKY/WX    TMP DP  RH WIND       PRES   REMARKS
TWIN CITIES    PTSUNNY   61  43  51 NE8G20    30.23F
ST PAUL        PTSUNNY   60  43  53 N9        30.24F
CRYSTAL        SUNNY     62  42  47 NE13G18   30.23F
BLAINE         PTSUNNY   61  43  51 NE12G22   30.24F
LAKEVILLE      MOSUNNY   57  45  62 NE8G17    30.23S
EDEN PRAIRIE   SUNNY     62  42  47 N12G21    30.22F
SOUTH ST PAUL  MOSUNNY   60  41  50 NE7G16    30.23S
LAKE ELMO      CLOUDY    59  45  58 NE8       30.24F
$$
MNZ001>005-007-008-013>017-022>024-027-028-302000-
   Northwest Minnesota

CITY           SKY/WX    TMP DP  RH WIND       PRES   REMARKS
BEMIDJI        SUNNY     51  30  43 N3        30.33F
HALLOCK        SUNNY     52  27  37 CALM      30.38F
ROSEAU         SUNNY     52  28  40 CALM      30.37F
WARROAD        SUNNY     45  34  65 E8        30.39F
THIEF RVR FALL SUNNY     48  30  49 N5        30.37F
CROOKSTON      SUNNY     52  30  43 NE6       30.38F
FOSSTON        SUNNY     52  36  54 CALM      30.35F
DETROIT LAKES  SUNNY     52  34  50 N5        30.32F
MOORHEAD       SUNNY     52  36  54 N10       30.35F
PARK RAPIDS    SUNNY     55  25  31 E9G16     30.30F
MAHNOMEN       FAIR      50  34  53 NE8       30.33F
$$
MNZ006-009>011-018-025>026-302000-
   North Central Minnesota

CITY           SKY/WX    TMP DP  RH WIND       PRES   REMARKS
BAUDETTE       SUNNY     49  32  52 NW13      30.36F
FLAG ISLAND    SUNNY     45  27  49 N7        30.38S
INTL FALLS     SUNNY     48  28  46 VRB6      30.35F
WASKISH        SUNNY     52  34  50 SW8       30.35F
BIG FORK       SUNNY     54  28  37 NW7       30.33F
LONGVILLE      SUNNY     54  28  37 N5        30.30F
GRAND RAPIDS   SUNNY     52  27  37 N9G17     30.31S
CRANE LAKE     SUNNY     48  27  43 NW5         N/A
ORR            SUNNY     50  27  40 W6        30.31S
COOK           SUNNY     48  28  46 NW5       30.33S
WALKER         FAIR      50  31  48 N5        30.32S
$$
MNZ012-019>021-037-302000-
   Northeast Minnesota

CITY           SKY/WX    TMP DP  RH WIND       PRES   REMARKS
DULUTH         MOSUNNY   52  35  52 E9        30.27S
HIBBING        SUNNY     54  29  38 NE7G17    30.30F
EVELETH        SUNNY     52  28  40 N7        30.31S
DULUTH HARBOR  SUNNY     50  39  66 NE6       30.31F
TWO HARBORS    SUNNY     54  39  58 E7        30.27F
SILVER BAY     SUNNY     52  30  43 E7        30.28R
GRAND MARAIS     N/A     45  35  68 E3        30.33R
G MARAIS ARPRT SUNNY     50  25  37 N13       30.29S
$$
MNZ029>031-032-039>041-046>048-054>057-064-302000-
   West Central Minnesota

CITY           SKY/WX    TMP DP  RH WIND       PRES   REMARKS
FERGUS FALLS   SUNNY     54  36  50 N5        30.33F
WHEATON        SUNNY     52  37  58 N14       30.35F
MORRIS         SUNNY     55  39  54 N15       30.30F
ALEXANDRIA     SUNNY     55  36  48 N12       30.30F
ELBOW LAKE     FAIR      53  36  53 N10       30.31S
WADENA         SUNNY     54  34  47 N10       30.30F
GLENWOOD       SUNNY     55  37  50 NE12      30.29F
APPLETON       SUNNY     57  39  51 N12G18    30.30S
BENSON         SUNNY     57  37  47 N8        30.29F
ORTONVILLE     MOSUNNY   54  37  54 N8G16     30.32S
MADISON        MOSUNNY   55  39  54 N14G20    30.30F
WILLMAR        FAIR      57  41  54 N12G17    30.29S
$$
MNZ033>034-036-042>043-049>051-058-059-302000-
   Central Minnesota

CITY           SKY/WX    TMP DP  RH WIND       PRES   REMARKS
ST CLOUD       SUNNY     58  37  45 NE9       30.27S
SAUK CENTRE    FAIR      55  34  44 N8        30.29F
PAYNESVILLE    SUNNY     54  38  56 NW7       30.28S
AITKIN         SUNNY     57  30  35 N10G18    30.27F
PINE RIVER     SUNNY     52  36  54 N12       30.33F
BRAINERD       SUNNY     55  32  41 N6        30.29F
STAPLES        SUNNY     54  28  37 E6        30.30F
LONG PRAIRIE   FAIR      52  32  46 N7        30.29F
LITTLE FALLS   SUNNY     55  32  41 N6        30.29S
LITCHFIELD     SUNNY     57  39  51 N8G16     30.27S
BUFFALO        SUNNY     59  37  43 NE9G16    30.26S
MAPLE LAKE     SUNNY     59  42  53 N10       30.26F
$$
MNZ037-044-045-052-053-302000-
   East Central Minnesota

CITY           SKY/WX    TMP DP  RH WIND       PRES   REMARKS
PRINCETON      SUNNY     61  36  39 NE13G20   30.26S
MORA           SUNNY     55  34  44 NE8       30.28S
CAMBRIDGE      SUNNY     61  43  51 N6        30.24S
RUSH CITY      MOSUNNY   58  40  50 NE10      30.26S
MOOSE LAKE     SUNNY     57  32  38 NE12      30.25F
HINCKLEY       FAIR      59  37  44 N6        30.26S
CLOQUET        SUNNY     55  27  33 NE9       30.27F
MCGREGOR       SUNNY     54  32  43 N12       30.29S
$$
MNZ071>073-080-081-089-090-097-098-302000-
   Southwest Minnesota

CITY           SKY/WX    TMP DP  RH WIND       PRES   REMARKS
MONTEVIDEO     MOSUNNY   57  43  58 NE13G20   30.30S
GRANITE FALLS  SUNNY     57  39  51 N10G18    30.30F
CANBY          SUNNY     55  40  59 N12G17    30.31S
MARSHALL       SUNNY     55  37  50 N20G25    30.27F
REDWOOD FALLS  SUNNY     59  41  51 N12G18    30.26F
OLIVIA         SUNNY     55  36  47 N15       30.25F
PIPESTONE      MOSUNNY   55  41  58 NE14G20   30.26F
WINDOM         MOSUNNY   57  43  58 N17       30.25S
WORTHINGTON    SUNNY     55  41  58 N18G26    30.25S
JACKSON        MOSUNNY   57  46  67 N14G22    30.24F
TRACY          SUNNY     57  43  59 N18       30.27S
SLAYTON        MOSUNNY   55  42  61 N16       30.27S
$$
MNZ065>067-074>077-082>085-091>093-302000-
   South Central Minnesota

CITY           SKY/WX    TMP DP  RH WIND       PRES   REMARKS
MANKATO        PTSUNNY   59  43  55 NE16      30.23S
NEW ULM        MOSUNNY   57  39  51 NE15      30.23F
ST JAMES       MOSUNNY   61  45  55 N13G18    30.25S
FAIRMONT       MOSUNNY   57  43  58 N17       30.23S
GLENCOE        SUNNY     59  44  58 NE7G17    30.24S
FARIBAULT      MOSUNNY   59  45  58 N14       30.23S
OWATONNA       PTSUNNY   57  45  62 N14       30.22S
WASECA         MOSUNNY   57  45  62 NE16      30.23S
ALBERT LEA     PTSUNNY   59  46  63 N15       30.20F
$$
MNZ078>079-086>088-094>096-302000-
   Southeast Minnesota

CITY           SKY/WX    TMP DP  RH WIND       PRES   REMARKS
ROCHESTER      CLOUDY    55  48  77 N14       30.22R
RED WING       PTSUNNY   57  45  62 NE9       30.22S
STANTON        PTSUNNY   59  45  60 N10G21    30.22S
DODGE CENTER   CLOUDY    55  48  76 N15       30.21S
WINONA         CLOUDY    59  50  72 N8        30.20R
AUSTIN         CLOUDY    55  48  76 N12       30.19S
PRESTON        CLOUDY    55  48  80 N14       30.19S
$$
ABBREVIATIONS USED IN REMARKS
   TC - TEMPERATURES IN CELSIUS
  WCI - WIND CHILL INDEX
   HX - HEAT INDEX
  VSB - VISIBILITY
$$


USA.gov is the U.S. government's official web portal to all federal, state and local government web resources and services.